| time (UTC) | temp C | wind direction | speed KPH | gust KPH | rain 1hr cm | rain 24hr cm | rain mn cm | humidity % | barometer mb |
| 20260502224527 | 17 | 102 | 1.6 | 4.8 | 0.00 | 0.00 | 0.00 | 86 | 1016.8 |
| 20260502223029 | 17 | 120 | 3.2 | 6.4 | 0.00 | 0.00 | 0.00 | 86 | 1017.0 |
| 20260502221528 | 17 | 118 | 4.8 | 6.4 | 0.00 | 0.00 | 0.00 | 85 | 1016.9 |
| 20260502220029 | 18 | 120 | 1.6 | 6.4 | 0.00 | 0.00 | 0.00 | 85 | 1017.0 |
| 20260502214536 | 18 | 112 | 1.6 | 4.8 | 0.00 | 0.00 | 0.00 | 84 | 1017.1 |
| 20260502213031 | 18 | 115 | 1.6 | 6.4 | 0.00 | 0.00 | 0.00 | 85 | 1017.4 |
| 20260502211529 | 18 | 87 | 3.2 | 8.0 | 0.00 | 0.00 | 0.00 | 85 | 1017.4 |
| 20260502210031 | 18 | 112 | 4.8 | 9.7 | 0.00 | 0.00 | 0.00 | 86 | 1017.3 |
| 20260502204528 | 18 | 115 | 4.8 | 8.0 | 0.00 | 0.00 | 0.00 | 86 | 1017.2 |
| 20260502203027 | 18 | 110 | 3.2 | 9.7 | 0.00 | 0.00 | 0.00 | 86 | 1017.1 |
| 20260502201529 | 18 | 111 | 1.6 | 11.3 | 0.00 | 0.00 | 0.00 | 86 | 1017.0 |
| 20260502200027 | 18 | 120 | 4.8 | 11.3 | 0.00 | 0.00 | 0.00 | 85 | 1016.8 |
| 20260502194527 | 18 | 101 | 6.4 | 11.3 | 0.00 | 0.00 | 0.00 | 85 | 1016.6 |
| 20260502193029 | 18 | 80 | 4.8 | 11.3 | 0.00 | 0.00 | 0.00 | 83 | 1016.5 |
| 20260502191531 | 18 | 130 | 3.2 | 11.3 | 0.00 | 0.00 | 0.00 | 83 | 1016.7 |
| 20260502190032 | 18 | 114 | 4.8 | 11.3 | 0.00 | 0.00 | 0.00 | 82 | 1016.6 |
| 20260502184533 | 19 | 98 | 4.8 | 14.5 | 0.00 | 0.00 | 0.00 | 81 | 1016.4 |
| 20260502183028 | 19 | 116 | 6.4 | 12.9 | 0.00 | 0.00 | 0.00 | 81 | 1016.4 |
| 20260502181528 | 19 | 77 | 4.8 | 12.9 | 0.00 | 0.00 | 0.00 | 79 | 1016.5 |
| 20260502163032 | 21 | 62 | 8.0 | 19.3 | 0.00 | 0.00 | 0.00 | 76 | 1017.1 |
| 20260502161528 | 21 | 120 | 6.4 | 17.7 | 0.00 | 0.00 | 0.00 | 75 | 1017.1 |
| 20260502151530 | 21 | 124 | 8.0 | 17.7 | 0.00 | 0.00 | 0.00 | 73 | 1018.0 |
| 20260502123030 | 22 | 126 | 11.3 | 27.4 | 0.00 | 0.00 | 0.00 | 69 | 1019.2 |
| 20260502121532 | 22 | 104 | 11.3 | 24.1 | 0.00 | 0.00 | 0.00 | 69 | 1019.2 |
| 20260502114537 | 22 | 115 | 11.3 | 19.3 | 0.00 | 0.00 | 0.00 | 72 | 1019.7 |
| 20260502113029 | 21 | 113 | 9.7 | 19.3 | 0.00 | 0.00 | 0.00 | 71 | 1020.0 |
| 20260502111528 | 22 | 68 | 9.7 | 17.7 | 0.00 | 0.00 | 0.00 | 71 | 1020.0 |
| 20260502110029 | 21 | 103 | 9.7 | 20.9 | 0.00 | 0.00 | 0.00 | 72 | 1020.1 |
| 20260502104527 | 21 | 122 | 9.7 | 20.9 | 0.00 | 0.00 | 0.00 | 72 | 1020.3 |
| 20260502103029 | 21 | 58 | 11.3 | 20.9 | 0.00 | 0.00 | 0.00 | 73 | 1020.4 |
| 20260502101526 | 21 | 110 | 14.5 | 22.5 | 0.00 | 0.00 | 0.00 | 74 | 1020.5 |
| 20260502091528 | 20 | 87 | 11.3 | 20.9 | 0.00 | 0.00 | 0.00 | 77 | 1020.7 |
| 20260502071530 | 19 | 112 | 1.6 | 6.4 | 0.00 | 0.00 | 0.00 | 80 | 1020.8 |
| 20260502070033 | 18 | 107 | 1.6 | 3.2 | 0.00 | 0.00 | 0.00 | 82 | 1020.7 |
| 20260502064543 | 18 | 304 | 0.0 | 3.2 | 0.00 | 0.00 | 0.00 | 83 | 1020.9 |
| 20260502063029 | 18 | 0 | 0.0 | 0.0 | 0.00 | 0.00 | 0.00 | 83 | 1020.8 |
| 20260502061530 | -17 | 0.0 | 0.0 | 0.00 | 0.00 | 0.00 | 1020.7 | ||
| 20260502060040 | -17 | 0.0 | 0.0 | 0.00 | 0.00 | 0.00 | 1020.6 | ||
| 20260502054528 | -17 | 0.0 | 0.0 | 0.00 | 0.00 | 0.00 | 1020.6 | ||
| 20260502053029 | 18 | 0 | 0.0 | 0.0 | 0.00 | 0.00 | 0.00 | 85 | 1020.7 |
| 20260502051532 | 18 | 0 | 0.0 | 1.6 | 0.00 | 0.00 | 0.00 | 86 | 1020.5 |
| 20260502050033 | 18 | 295 | 0.0 | 3.2 | 0.00 | 0.00 | 0.00 | 86 | 1020.5 |
| 20260502044528 | 18 | 309 | 3.2 | 4.8 | 0.00 | 0.00 | 0.00 | 85 | 1020.4 |
| 20260502043034 | 18 | 0 | 0.0 | 0.0 | 0.00 | 0.00 | 0.00 | 85 | 1020.5 |
| 20260502041533 | 18 | 0 | 0.0 | 0.0 | 0.00 | 0.00 | 0.00 | 85 | 1020.4 |
| 20260502040028 | 18 | 0 | 0.0 | 0.0 | 0.00 | 0.00 | 0.00 | 84 | 1020.7 |
| 20260502034532 | 18 | 0 | 0.0 | 3.2 | 0.00 | 0.00 | 0.00 | 84 | 1020.8 |
| 20260502033031 | 18 | 0 | 0.0 | 0.0 | 0.00 | 0.00 | 0.00 | 84 | 1020.6 |
| 20260502031529 | 18 | 0 | 0.0 | 0.0 | 0.00 | 0.00 | 0.00 | 84 | 1020.8 |
| 20260502030030 | 18 | 0 | 0.0 | 0.0 | 0.00 | 0.00 | 0.00 | 84 | 1020.9 |
| 20260502024533 | 18 | 0 | 0.0 | 0.0 | 0.00 | 0.00 | 0.00 | 85 | 1020.9 |
| 20260502023032 | 18 | 0 | 0.0 | 0.0 | 0.00 | 0.00 | 0.00 | 85 | 1021.0 |
| 20260502021530 | 18 | 0 | 0.0 | 0.0 | 0.00 | 0.00 | 0.00 | 85 | 1020.9 |
| 20260502020033 | 18 | 0 | 0.0 | 0.0 | 0.00 | 0.00 | 0.00 | 85 | 1021.0 |
| 20260502014529 | 18 | 0 | 0.0 | 0.0 | 0.00 | 0.00 | 0.00 | 85 | 1021.0 |
| 20260502013030 | 18 | 0 | 0.0 | 0.0 | 0.00 | 0.00 | 0.00 | 85 | 1021.0 |
| 20260502011528 | 18 | 0 | 0.0 | 0.0 | 0.00 | 0.00 | 0.00 | 85 | 1021.3 |
| 20260502010031 | 18 | 0 | 0.0 | 0.0 | 0.00 | 0.00 | 0.00 | 85 | 1021.4 |
| 20260502004536 | 18 | 0 | 0.0 | 0.0 | 0.00 | 0.00 | 0.00 | 85 | 1021.5 |
| 20260502003030 | 18 | 0 | 0.0 | 0.0 | 0.00 | 0.00 | 0.00 | 85 | 1021.7 |
| 20260502001530 | 18 | 0 | 0.0 | 3.2 | 0.00 | 0.00 | 0.00 | 85 | 1022.0 |
| 20260502000029 | 18 | 130 | 0.0 | 3.2 | 0.00 | 0.00 | 0.00 | 84 | 1022.1 |
| 20260501234528 | 18 | 143 | 0.0 | 3.2 | 0.00 | 0.00 | 0.00 | 85 | 1022.3 |
| 20260501233027 | 18 | 0 | 0.0 | 4.8 | 0.00 | 0.00 | 0.00 | 85 | 1022.4 |
| 20260501231530 | 18 | 135 | 1.6 | 4.8 | 0.00 | 0.00 | 0.00 | 85 | 1022.4 |
| 20260501230030 | 18 | 115 | 1.6 | 4.8 | 0.00 | 0.00 | 0.00 | 85 | 1022.3 |